Simultaneous Nadir Overpasses (SNOs) Predictions

Prediction of SNOs between GOES-17 and NOAA-19 Satellite Orbit:

Table of predicted SNOs for the next 14.0 days since TLE Epoch: 12/2/2023
Index Date Time (GOES-17) GOES-17 Lat,Lon NOAA-19 Lat,Lon Distance(km) Time Diff (sec)
1 12/02/2023 03:59:45 0.01,-104.64 -0.24,-105.71 122.12 80
2 12/03/2023 03:44:57 -0.02,-104.64 0.43,-102.76 215.53 80
3 12/05/2023 16:04:38 0.03,-104.67 0.67,-107.43 315.68 80
4 12/06/2023 15:55:09 0.02,-104.67 -0.03,-104.48 21.84 80
5 12/07/2023 15:43:00 0.02,-104.67 -0.68,-101.52 359.35 80
6 12/10/2023 04:02:59 -0.03,-104.64 -0.40,-106.27 185.56 80
7 12/11/2023 03:48:09 -0.03,-104.64 0.25,-103.31 151.54 80
8 12/12/2023 03:36:01 -0.02,-104.64 0.97,-100.36 488.47 80
9 12/13/2023 16:07:49 0.02,-104.65 0.80,-107.99 380.71 80
10 12/14/2023 15:55:39 0.03,-104.65 0.13,-105.02 43.52 80
11 12/15/2023 15:46:10 0.04,-104.64 -0.54,-102.06 293.67 80
